User: anonymous   Login
Location: Newark
(0.5300°S, 127.4800°E)
Time: 03:58:25
(UTC+00:00)
Language:

SR - Orbit

View from above orbital plane
View from above orbital plane
View from above satellite
View from above satellite

Ground track
Ground track

The orbit data is extracted from the following two-line orbital elements,

1    46U 60007B   19261.87438407 -.00000053  00000-0  12747-4 0  9997
2    46  66.6900  63.0332 0213504 332.5283  26.4663 14.49243942 99600
Epoch (UTC): 18 September 2019 20:59:06
Eccentricity: 0.0213504
inclination: 66.6900°
perigee height: 576 km
apogee height: 880 km
right ascension of ascending node: 63.0332°
argument of perigee: 332.5283°
revolutions per day: 14.49243942
mean anomaly at epoch: 26.4663°
orbit number at epoch: 9960

The dashed part of the orbit path shows where the satellite is in the earth's shadow,  

DLR